Overview Statistics Trail Chart Weather Telemetry Raw packets
 

This is the latest recevied weather packets stored in our database for station/object KQ4WWD. If no packets are shown the sender has not sent any weather packets the latest 10 day(s).

<< 61 62 63 64 65 66 67 >>
Time Temp. Humidity Pressure Rain* Wind** Luminosity Snow
1788184581 29.44° C 83% 1017.9 hPa 0 mm - 496 W/m² -
1788184278 28.33° C 85% 1017.9 hPa 0 mm - 436 W/m² -
1788183973 27.78° C 89% 1017.9 hPa 0 mm - 419 W/m² -
1788183668 27.22° C 90% 1017.7 hPa 0 mm - 396 W/m² -
1788183367 27.22° C 92% 1017.6 hPa 0 mm - 399 W/m² -
1788183062 26.67° C 93% 1017.5 hPa 0 mm - 407 W/m² -
1788182759 26.11° C 94% 1017.6 hPa 0 mm - 462 W/m² -
1788182458 26.11° C 94% 1017.5 hPa 0 mm - 94 W/m² -
1788182152 26.11° C 95% 1017.7 hPa 0 mm - 77 W/m² -
1788181849 26.11° C 95% 1017.6 hPa 0 mm - 72 W/m² -
1788181544 25.56° C 95% 1017.5 hPa 0 mm - 68 W/m² -
1788181239 25.56° C 95% 1017.5 hPa 0 mm - 62 W/m² -
1788180938 25.56° C 96% 1017.3 hPa 0 mm - 60 W/m² -
1788180633 25.56° C 96% 1017.2 hPa 0 mm - 59 W/m² -
1788180330 25° C 96% 1017.1 hPa 0 mm - 58 W/m² -
1788180026 25.56° C 96% 1017.4 hPa 0 mm - 70 W/m² -
1788179724 25° C 96% 1017.3 hPa 0 mm - 112 W/m² -
1788179419 25° C 96% 1017.3 hPa 0 mm - 91 W/m² -
1788179114 25° C 96% 1017 hPa 0 mm - 62 W/m² -
1788178809 25° C 96% 1017.2 hPa 0 mm - 44 W/m² -
1788178505 25° C 96% 1017.2 hPa 0 mm - 32 W/m² -
1788178200 25° C 96% 1017 hPa 0 mm - 34 W/m² -
1788177899 25° C 96% 1017 hPa 0 mm - 32 W/m² -
1788177594 25° C 96% 1017 hPa 0 mm - 29 W/m² -
1788177291 24.44° C 96% 1016.9 hPa 0 mm - 29 W/m² -

* Rain latest hour (hover to see other rain measurements)
** Current wind speed in m/s (hover to see current wind gust speed)